Flag Weather past 2 weeks in Juneau, Alaska, U.S.A.

Now
41 °F

Light rain. Mostly cloudy.


Feels Like: 34 °F
Forecast: 36 / 40 °F
Wind: 12 mph from Southeast

Location: Juneau International Airport

Current Time: Nov 23, 2014 at 3:31:34 PM

Latest Report: Nov 23, 2014 at 2:53 PM


Visibility: 8 mi

Pressure: 29.78 "Hg

Humidity: 93%

Dew point: 39 °F

Location of JuneauLocation

Historic Weather in Juneau — Graph

°F

Juneau temperature yesterday

Maximum temperature yesterday: 42 °F (at 11:53 AM)
Minimum temperature yesterday: 39 °F (at 10:53 PM)
Average temperature yesterday: 41 °F

Past Weeks' High & Low Weather Summary

 TemperatureHumidityPressure
High44 °F (Nov 21, 12:53 PM)100% (Nov 8, 8:53 PM)30.50 "Hg (Nov 8, 8:53 PM)
Low19 °F (Nov 15, 5:53 AM)76% (Nov 16, 10:53 PM)29.14 "Hg (Nov 21, 11:53 AM)
Average33 °F94%30.05 "Hg
* Reported Nov 8 1:53 PM — Nov 23 1:53 PM, Juneau, Weather by CustomWeather, © 2014

Note: Actual official high and low records may vary slightly from our data, if they occured in-between our weather recording intervals... More about our weather records

Advertising

Juneau weather history for previous 24 hours

 ConditionsComfort  
Time TempWeatherWind HumidityBarometerVisibility
1:53 PM
Nov 23
42 °FLight rain. Cloudy.12 mph85%29.76 "Hg10 mi
12:55 PM42 °FLight rain. Cloudy.14 mph85%29.75 "Hg10 mi
11:53 AM41 °FOvercast.13 mph89%29.73 "Hg10 mi
10:53 AM41 °FLow clouds.12 mph89%29.72 "Hg10 mi
9:53 AM40 °FMostly cloudy.12 mph93%29.70 "Hg10 mi
8:53 AM40 °FLight rain. Mostly cloudy.9 mph93%29.67 "Hg10 mi
7:53 AM40 °FOvercast.10 mph93%29.65 "Hg10 mi
6:53 AM40 °FOvercast.9 mph89%29.63 "Hg10 mi
5:53 AM40 °FOvercast.9 mph93%29.62 "Hg10 mi
4:53 AM40 °FLow clouds.9 mph89%29.60 "Hg10 mi
3:53 AM39 °FMostly cloudy.8 mph93%29.58 "Hg10 mi
2:53 AM39 °FMostly cloudy.7 mph93%29.57 "Hg10 mi
1:53 AM39 °FMostly cloudy.9 mph93%29.56 "Hg10 mi
12:53 AM40 °FMostly cloudy.9 mph89%29.55 "Hg10 mi
11:53 PM
Nov 22
40 °FMostly cloudy.12 mph89%29.54 "Hg10 mi
10:53 PM39 °FMostly cloudy.13 mph93%29.52 "Hg10 mi
9:53 PM40 °FOvercast.12 mph93%29.50 "Hg10 mi
8:53 PM40 °FMostly cloudy.9 mph93%29.48 "Hg10 mi
7:53 PM41 °FLight rain. Overcast.7 mph89%29.46 "Hg10 mi
6:53 PM41 °FMostly cloudy.12 mph89%29.45 "Hg10 mi
5:53 PM40 °FOvercast.8 mph93%29.44 "Hg10 mi
4:53 PM41 °FLight rain. Overcast.9 mph89%29.43 "Hg10 mi
3:53 PM41 °FMostly cloudy.10 mph89%29.41 "Hg10 mi
Weather by CustomWeather, © 2014

See weather overviewHow to use our weather pages